Regional Weather Roundup
Issued by NWS Northern Indiana

Home | Current Version | Previous Version | Text Only | Print | Product List | Glossary On
Versions: 1 2 3 4 5 6 7 8 9 10 11 12 13 14 15 16 17 18 19 20 21 22 23 24 25 26 27 28 29 30 31 32 33 34 35 36 37 38 39 40 41 42 43 44 45 46 47 48 49 50
000
ASUS43 KIWX 200910
RWRIWX

KIWX WEATHER ROUNDUP
NATIONAL WEATHER SERVICE NORTHERN INDIANA
500 AM EDT SUN APR 20 2014

NOTE: "FAIR" INDICATES FEW OR NO CLOUDS BELOW 12,000 FEET WITH NO
SIGNIFICANT WEATHER AND/OR OBSTRUCTIONS TO VISIBILITY.

* THESE STATIONS ARE NOT UNDER NWS QUALITY CONTROL. THEY ALSO MAY NOT
  REPORT WEATHER SUCH AS PRECIPITATION OR FOG.

INZ001>027-201000-
NORTHERN INDIANA

CITY           SKY/WX    TMP DP  RH WIND       PRES   REMARKS
GARY*          CLEAR     48  25  40 SE8       30.24S
VALPARAISO     CLEAR     37  26  64 E3        30.26S
MICHIGAN CITY* CLEAR     43  25  49 SE6       30.25F
LAPORTE*       CLEAR     35  28  75 E5        30.26F WCI  31
SOUTH BEND     CLEAR     42  28  57 SE9       30.28S
GOSHEN         CLEAR     42  29  59 SE9       30.27F
MONTICELLO*    CLEAR     43  28  56 CALM      30.25S
LOGANSPORT*    CLEAR     37  30  75 E7        30.27S
ROCHESTER*     CLEAR     43  32  65 E7        30.27F
WARSAW*        PTCLDY    37  30  75 SE6       30.28S
ANGOLA*        CLEAR     37  30  75 SE6       30.29S
FORT WAYNE     PTCLDY    36  29  75 E8        30.30S
HUNTINGTON*    FAIR      37  31  80 CALM      30.29S
PERU/GRISSOM   PTCLDY    41  30  64 E8        30.26F
MARION*        PTCLDY    39  28  62 E7        30.28F

$$
INZ028>050-201000-
CENTRAL INDIANA

CITY           SKY/WX    TMP DP  RH WIND       PRES   REMARKS
LAFAYETTE      CLEAR     41  30  65 E8        30.25S
KOKOMO*        PTCLDY    39  28  65 E10       30.27F
MUNCIE*        PTCLDY    39  28  64 E3        30.28S
INDIANAPOLIS   CLOUDY    45  32  60 NE7       30.25S

$$
MIZ043>046-050>051-056>058-064>065-071>073-077>080-201000-
SOUTHWEST LOWER MICHIGAN

CITY           SKY/WX    TMP DP  RH WIND       PRES   REMARKS
BATTLE CREEK   CLEAR     41  28  60 CALM      30.30S
BENTON HARBOR  PTCLDY    42  29  59 SE7       30.26S
COLDWATER*     CLEAR     39  30  71 SE5       30.29S
HILLSDALE*     PTCLDY    40  30  67 SE8       30.29F
HOLLAND        PTCLDY    45  29  53 SE9       30.26F
GRAND RAPIDS   PTCLDY    43  29  57 SE8       30.28F
KALAMAZOO      CLEAR     40  29  64 CALM      30.29S
STURGIS*       CLEAR     39  28  65 E6        30.28F
THREE RIVERS*  FAIR      40  29  64 CALM      30.30S

$$
OHZ001>008-015>018-024>025-201000-
NORTHWEST OHIO

CITY           SKY/WX    TMP DP  RH WIND       PRES   REMARKS
WAUSEON*       FAIR      36  32  87 CALM      30.31S
DEFIANCE       PTCLDY    36  29  75 CALM      30.32R
FINDLAY        PTCLDY    37  30  75 E6        30.29F
TOLEDO EXPRESS PTCLDY    36  31  82 CALM      30.31R
TOLEDO METCALF PTCLDY    39  32  76 CALM      30.32S
LIMA           CLEAR     36  30  79 E5        30.28F

$$
&&



USA.gov is the U.S. government's official web portal to all federal, state and local government web resources and services.